Location: Julian California
(33.0790°N, 116.6010°W)
Time: 12:22:21
(UTC-07:00)

Cosmos 304 Rocket - Pass Details

Date: 12 July 2018
Orbit: 679 x 689 km, 74.0° (Epoch: 20 September)

Event Time Altitude Azimuth Distance (km) Brightness Sun altitude
Rises 21:09:30 0° 349° (N) 3,041 7.9 -13.6°
Reaches altitude 10° 21:11:52 10° 355° (N) 2,123 6.9 -14.0°
Maximum altitude 21:16:30 49° 70° (ENE) 873 4.1 -14.8°
Enters shadow 21:19:02 25° 134° (SE) 1,370 4.7 -15.2°
